sat.trackr.live / text

‹ back to catalog

STARLINK-35827

NORAD 66365 · 2025-254T

PAYLOAD ACTIVE UNKNOWN

§ Identity

Operator
Country
US
Launch date
2025-11-06
Launch site
AFWTR
Launch vehicle
Mass (kg)
RCS (m²)

Purposes: comms

External: N2YO · Heavens-Above · Gunter

§ Orbital elements

Epoch: 2026-05-25T05:17:44.096064Z

Period
94.10 min
Inclination
53.1567°
Eccentricity
0.0001154
Mean motion
15.30209313 rev/d
Perigee alt
474.4 km
Apogee alt
476.0 km
Semi-major
6,853.3 km
B*
4.3663e-4
RAAN
236.9204°
Arg perigee
82.9420°
Mean anomaly
277.1712°
Rev number
3,069

§ Raw data

STARLINK-358271 66365U 25254T   26145.22064926  .00012598  00000+0  43663-3 0  99922 66365  53.1567 236.9204 0001154  82.9420 277.1712 15.30209313 30699

JSON: /api/v1/satellites/66365 · /tle

For live sub-satellite position, see the globe view (requires WebGL).

§ Visibility from observer

Set your observer location to see the next 7 days of passes ≥ 10°. The values pass through the URL so the page stays shareable.

No JS? Fill the form by hand. The geolocation button needs JavaScript.